Flag for U.S.A. Weather past 2 weeks in Lawrence, Kansas, U.S.A.

Now
63 °F

Light rain. Overcast.


Feels Like: 63 °F
Forecast: 57 / 65 °F
Wind: 6 mph from Northeast

Location: Lawrence Municipal Airport

Current Time: Apr 18, 2015 at 12:48:17 PM

Latest Report: Apr 18, 2015 at 11:52 AM


Visibility: 10 mi

Pressure: 29.91 "Hg

Humidity: 84%

Dew point: 58 °F

Location of LawrenceLocation

Historic Weather in Lawrence — Graph

°F

Lawrence temperature yesterday

Maximum temperature yesterday: 74 °F (at 4:52 PM)
Minimum temperature yesterday: 51 °F (at 6:52 AM)
Average temperature yesterday: 63 °F

Past Weeks' High & Low Weather Summary

 TemperatureHumidityPressure
High87 °F (Apr 7, 3:52 PM)97% (Apr 5, 10:52 PM)30.41 "Hg (Apr 5, 10:52 PM)
Low25 °F (Apr 4, 6:52 AM)20% (Apr 4, 5:52 PM)29.52 "Hg (Apr 9, 5:52 AM)
Average57 °F69%29.99 "Hg
* Reported Apr 3 10:52 AM — Apr 18 10:52 AM, Lawrence, Weather by CustomWeather, © 2015

Note: Actual official high and low records may vary slightly from our data, if they occured in-between our weather recording intervals... More about our weather records

Advertising

Lawrence weather history for previous 24 hours

 ConditionsComfort  
Time TempWeatherWind HumidityBarometerVisibility
10:52 AM
Sat, Apr 18
61 °FLight rain. Overcast.9 mph87%29.92 "Hg10 mi
10:00 AM59 °FThunderstorms. Fog.21 mph93%29.92 "Hg4 mi
8:52 AM59 °FThundershowers. Fog.5 mph93%29.91 "Hg6 mi
7:52 AM58 °FFog.No wind93%29.90 "Hg6 mi
6:52 AM55 °FFog.3 mph93%29.89 "Hg6 mi
5:52 AM56 °FOvercast.3 mph97%29.89 "Hg7 mi
5:01 AM55 °FFog.No wind96%29.91 "Hg3 mi
3:52 AM57 °FClear.No wind93%29.91 "Hg7 mi
2:52 AM57 °FPassing clouds.No wind93%29.93 "Hg7 mi
1:52 AM58 °FPassing clouds.No wind90%29.94 "Hg10 mi
12:52 AM59 °FClear.3 mph93%29.96 "Hg10 mi
11:52 PM
Fri, Apr 17
59 °FClear.No wind93%29.95 "Hg10 mi
10:52 PM59 °FClear.No wind93%29.96 "Hg10 mi
9:52 PM62 °FClear.No wind90%29.97 "Hg10 mi
8:52 PM62 °FSunny.5 mph90%29.95 "Hg10 mi
7:52 PM67 °FPartly sunny.3 mph81%29.95 "Hg10 mi
6:52 PM72 °FPassing clouds.5 mph64%29.95 "Hg10 mi
5:52 PM73 °FOvercast.7 mph62%29.96 "Hg10 mi
4:52 PM74 °FOvercast.3 mph57%29.94 "Hg10 mi
3:52 PM72 °FOvercast.6 mph66%29.96 "Hg10 mi
2:52 PM73 °FPartly sunny.9 mph64%29.96 "Hg10 mi
1:52 PM69 °FSunny.13 mph79%29.98 "Hg10 mi
12:59 PM65 °FLight rain. More clouds than sun.8 mph81%30.03 "Hg8 mi
Weather by CustomWeather, © 2015

See weather overviewHow to use our weather pages